Location: Newark
(39.6867°N, 100.6772°W)
Time: 15:00:44
(UTC+00:00)

Tiros 1 despin weight - Visible Passes

Search period start: 20 October 2019 00:00
Search period end: 30 October 2019 00:00
Orbit: 593 x 643 km, 48.2° (Epoch: 20 October)

Date Brightness Start Highest point End Pass type
(mag) Time Alt. Az. Time Alt. Az. Time Alt. Az.
20 Oct ? 10:14:53 24° NNE 10:14:53 24° NNE 10:17:27 10° ENE visible
20 Oct ? 11:51:57 13° NW 11:55:48 41° NNE 12:00:13 10° E visible
21 Oct ? 10:30:53 29° NNE 10:30:53 29° NNE 10:34:28 10° ENE visible
21 Oct ? 12:07:57 10° NW 12:12:33 61° NNE 12:17:10 10° ESE visible
22 Oct ? 10:46:55 35° N 10:47:15 35° NNE 10:51:33 10° E visible
22 Oct ? 12:24:28 10° WNW 12:29:11 82° SW 12:33:51 10° SE visible
23 Oct ? 11:03:00 40° NNW 11:04:05 48° NNE 11:08:37 10° E visible
24 Oct ? 09:42:05 14° ENE 09:42:05 14° ENE 09:42:53 10° ENE visible
24 Oct ? 11:19:10 40° NW 11:20:48 74° NNE 11:25:28 10° ESE visible
25 Oct ? 09:58:20 20° ENE 09:58:20 20° ENE 09:59:59 10° E visible
25 Oct ? 11:35:25 33° WNW 11:37:22 65° SW 11:41:59 10° SE visible
26 Oct ? 10:14:40 28° E 10:14:40 28° E 10:16:58 10° ESE visible
26 Oct ? 11:51:46 24° W 11:53:48 34° SW 11:58:00 10° SSE visible
27 Oct ? 10:31:06 33° ESE 10:31:06 33° ESE 10:33:42 10° ESE visible
27 Oct ? 12:08:12 14° WSW 12:10:05 18° SW 12:13:14 10° S visible
28 Oct ? 10:47:38 28° SSE 10:47:38 28° SSE 10:50:02 10° SE visible
29 Oct ? 11:04:14 18° S 11:04:14 18° S 11:05:46 10° SSE visible
